#timestamp,LO_Frequency,Hit 
1503450015.3,286046989.1,N
1503450035.2,286046989.8,P
1503450055.0,286046996.2,P
1503450055.9,286046996.2,N
1503450075.7,286046993.7,N
1503450095.6,286046991.2,P
1503450115.4,286046994.6,P
1503450135.2,286046993.5,P
1503450155.1,286046994.5,P
1503450156.0,286046994.5,P
1503450175.8,286047000.5,N
1503450195.7,286047002.4,N
1503450215.5,286047000.2,N
1503450235.3,286046999.3,N
1503450255.1,286046998.0,N
1503450275.9,286046997.6,N
1503450295.7,286046993.4,N
1503450315.5,286046993.4,N
1503450335.4,286046993.3,N
1503450355.2,286046993.8,N
1503450375.0,286046994.1,N
1503450375.9,286046994.1,N
1503450395.8,286046993.8,N
1503450415.6,286046996.2,N
1503450435.4,286046996.2,N
1503450455.3,286046995.7,N
1503450475.1,286046994.6,N
1503450476.0,286046994.6,N
1503450495.8,286046990.9,P
1503450515.7,286046996.4,N
1503450535.5,286046996.0,N
1503450555.3,286046995.5,N
1503450575.2,286046996.7,N
1503450595.9,286046999.2,N
1503450615.7,286047001.2,N
1503450635.6,286046996.9,N
1503450655.4,286047001.2,N
1503450675.2,286047003.4,N
1503450695.1,286047005.5,N
1503450696.0,286047005.5,N
1503450715.8,286047007.2,N
1503450735.6,286047008.0,N
1503450755.5,286047015.6,P
1503450775.3,286047013.4,N
1503450795.1,286047013.3,N
1503450815.9,286047014.3,N
1503450835.7,286047015.7,N
1503450855.5,286047014.3,N
1503450875.3,286047014.3,N
1503450895.2,286047016.3,P
1503450915.0,286047011.3,P
1503450915.9,286047011.3,P
1503450935.8,286047013.1,P
1503450955.6,286046999.4,P
1503450975.4,286046997.9,N
1503450995.3,286046996.8,N
1503451015.1,286046996.5,N
1503451016.0,286046996.5,N
1503451035.8,286046997.3,N
1503451055.7,286046999.3,N
1503451075.5,286047000.9,N
1503451095.3,286046999.6,N
1503451115.1,286046997.8,N
1503451135.9,286047000.0,N
1503451155.7,286046999.9,N
1503451175.5,286047001.0,N
1503451195.4,286047002.0,N
1503451215.2,286047002.6,N
1503451235.0,286047005.5,N
1503451235.9,286047005.5,N
1503451255.8,286047004.5,N
1503451275.6,286047003.0,N
1503451295.4,286047007.1,N
1503451315.3,286047006.1,N
1503451335.1,286047005.0,N
1503451336.0,286047005.0,N
1503451355.8,286047005.2,N
1503451375.7,286047003.4,N
1503451395.5,286047007.6,N
1503451415.3,286047003.6,N
1503451435.1,286047004.6,N
1503451455.9,286047003.3,N
1503451475.7,286047006.0,N
1503451495.5,286047006.0,N
1503451515.4,286047005.6,N
1503451535.2,286047003.9,N
1503451555.0,286047003.3,N
1503451555.9,286047003.3,N
1503451575.8,286047004.2,N
1503451595.6,286047001.9,N
1503451615.4,286047001.5,N
1503451635.3,286047004.7,N
1503451655.1,286047008.5,P
1503451675.8,286047002.0,N
1503451695.7,286047000.3,N
1503451715.5,286047002.2,N
1503451735.3,286047003.1,N
1503451755.2,286047005.4,N
1503451775.9,286047006.5,N
1503451795.7,286047005.8,N
1503451815.6,286047004.9,N
1503451835.4,286047008.5,P
1503451855.2,286047000.8,N
1503451875.1,286046997.8,N
1503451876.0,286046997.8,N
1503451895.8,286046994.2,N
1503451915.6,286046988.6,N
1503451935.5,286046990.0,N
1503451955.3,286046988.3,N
1503451975.1,286046982.2,N
1503451995.8,286046982.9,N
1503452015.7,286046982.6,N
1503452035.5,286046981.2,N
1503452055.3,286046978.7,N
1503452075.2,286046976.6,N
1503452095.9,286046976.9,N
1503452115.7,286046974.2,N
1503452135.6,286046974.3,N
1503452155.4,286046975.5,N
1503452175.2,286046975.3,N
1503452195.1,286046973.6,N
1503452196.0,286046973.6,N
1503452215.8,286046968.0,N
1503452235.6,286046971.8,N
1503452255.5,286046972.2,N
1503452275.3,286046971.0,N
1503452295.1,286046971.0,N
1503452315.8,286046969.6,N
1503452335.7,286046966.5,N
1503452355.5,286046969.0,N
1503452375.3,286046967.4,N
1503452395.2,286046967.4,N
1503452415.9,286046967.9,P
1503452435.7,286046990.8,N
1503452455.6,286046987.2,N
1503452475.4,286046986.8,N
1503452495.2,286046986.8,N
1503452515.1,286046983.8,N
1503452516.0,286046983.8,N
1503452535.8,286046982.2,N
1503452555.6,286046982.6,N
1503452575.5,286046986.8,N
1503452595.3,286046985.4,N
1503452615.1,286046988.4,N
1503452635.9,286046986.3,N
1503452655.7,286046987.3,N
1503452675.5,286046988.9,N
1503452695.4,286046995.6,N
1503452715.2,286046999.4,N
1503452735.0,286047000.9,N
1503452735.9,286047000.9,N
1503452755.7,286047004.3,N
1503452775.6,286047003.9,N
1503452795.4,286047005.0,N
1503452815.2,286047005.0,N
1503452835.1,286047004.0,N
1503452836.0,286047004.0,N
1503452855.8,286047005.5,N
1503452875.6,286047005.1,N
1503452895.5,286047008.9,N
1503452915.3,286047006.3,N
1503452935.1,286047010.0,N
1503452955.9,286047011.1,N
1503452975.7,286047013.5,N
1503452995.5,286047015.2,N
1503453015.4,286047015.5,N
1503453035.2,286047014.6,N
1503453055.0,286047017.1,N
1503453055.9,286047017.1,N
1503453075.8,286047016.5,N
1503453095.6,286047016.1,N
1503453115.4,286047016.6,N
1503453135.2,286047017.5,N
1503453155.1,286047018.6,N
1503453156.0,286047018.6,N
1503453175.8,286047017.8,N
1503453195.6,286047018.7,N
1503453215.5,286047018.3,N
1503453235.3,286047017.6,N
1503453255.1,286047019.1,P
1503453275.9,286047010.8,N
1503453295.7,286047008.7,N
1503453315.5,286047010.5,N
1503453335.4,286047008.5,N
1503453355.2,286047012.3,P
1503453375.0,286047002.2,P
1503453375.9,286047002.2,N
1503453395.8,286046998.2,N
1503453415.6,286046999.3,N
1503453435.4,286047000.5,N
1503453455.3,286046998.9,N
1503453475.1,286046995.7,N
1503453495.8,286046996.8,N
1503453515.7,286046999.1,N
1503453535.5,286046998.3,N
1503453555.3,286047000.3,N
1503453575.2,286047003.9,N
1503453595.9,286047001.3,N
